Location: Castillon
(43.1358°N, 0.8654°E)
Time: 19:53:18
(UTC+00:00)

ISS - Pass Details

Date: 24 January 2021
Orbit: 417 x 422 km, 51.6° (Epoch: 28 February)

Event Time Altitude Azimuth Distance (km) Brightness Sun altitude
Rises 17:40:34 0° 255° (WSW) 2,364 2.6 -7.9°
Reaches altitude 10° 17:42:44 10° 263° (W) 1,503 0.6 -8.3°
Maximum altitude 17:45:57 41° 335° (NNW) 631 -2.8 -8.9°
Enters shadow 17:49:01 11° 46° (NE) 1,448 -1.6 -9.4°
